Location: Brompton
(51.4000°N, 0.5333°E)
Time: 09:34:23
(UTC+00:00)

Cosmos 2297 - Pass Details

Date: 11 May 2021
Orbit: 837 x 857 km, 71.0° (Epoch: 13 June)

Event Time Altitude Azimuth Distance (km) Brightness Sun altitude
Exits shadow 23:04:28 24° 214° (SW) 1,700 4.9 -19.6°
Maximum altitude 23:08:03 82° 300° (WNW) 863 3.7 -19.7°
Drops below altitude 10° 23:13:45 10° 29° (NNE) 2,476 6.8 -19.9°
Sets 23:16:13 0° 31° (NNE) 3,412 7.6 -20.0°
